LPE2428 SAEZ-SPJC

Flight info

Callsign LPE2428
Flight time N/A
Altitude 28000
Route N0448F280 BIVAM3A BIVAM UW8 ERE UT680 VULEK/N0468F300 UT680 TUC UL550 SCO
Aircraft B763/H-SDE3FGHIM3RWXYZ/LB1

Departure

Time 2026-05-06 22:07
Airport Ezeiza International Airport - Ministro Pistarini (SAEZ)

Arrival

Time N/A
Airport Jorge Chávez International Airport (SPJC)
Time Latitude Longitude Altitude Speed Heading
2026-05-06 21:54 -34.81358 -58.53702 73 ft 0 kts 310°
2026-05-06 21:58 -34.81367 -58.53689 73 ft 2 kts 310°
2026-05-06 21:59 -34.81377 -58.53675 73 ft 2 kts 310°
2026-05-06 21:59 -34.81386 -58.53663 73 ft 0 kts 311°
2026-05-06 21:59 -34.81393 -58.53652 73 ft 2 kts 295°
2026-05-06 21:59 -34.81396 -58.53635 73 ft 2 kts 266°
2026-05-06 22:00 -34.81393 -58.53617 73 ft 2 kts 240°
2026-05-06 22:00 -34.81383 -58.53603 73 ft 2 kts 214°
2026-05-06 22:00 -34.81373 -58.53597 73 ft 0 kts 193°
2026-05-06 22:00 -34.81366 -58.53595 73 ft 0 kts 191°
2026-05-06 22:02 -34.81370 -58.53596 73 ft 2 kts 191°
2026-05-06 22:02 -34.81404 -58.53604 73 ft 7 kts 191°
2026-05-06 22:02 -34.81469 -58.53627 73 ft 12 kts 201°
2026-05-06 22:02 -34.81557 -58.53692 73 ft 17 kts 220°
2026-05-06 22:03 -34.81660 -58.53806 73 ft 22 kts 222°
2026-05-06 22:03 -34.81762 -58.53971 73 ft 26 kts 243°
2026-05-06 22:03 -34.81788 -58.54184 73 ft 26 kts 284°
2026-05-06 22:03 -34.81760 -58.54414 73 ft 29 kts 278°
2026-05-06 22:04 -34.81772 -58.54665 73 ft 29 kts 258°
2026-05-06 22:04 -34.81757 -58.54898 73 ft 26 kts 284°
2026-05-06 22:04 -34.81715 -58.55109 73 ft 24 kts 282°
2026-05-06 22:04 -34.81696 -58.55281 73 ft 16 kts 256°
2026-05-06 22:05 -34.81723 -58.55331 73 ft 3 kts 218°
2026-05-06 22:05 -34.81726 -58.55334 73 ft 0 kts 215°
2026-05-06 22:05 -34.81732 -58.55339 73 ft 1 kts 213°
2026-05-06 22:05 -34.81762 -58.55353 73 ft 7 kts 192°
2026-05-06 22:06 -34.81829 -58.55332 73 ft 15 kts 147°
2026-05-06 22:06 -34.81942 -58.55146 73 ft 46 kts 108°
2026-05-06 22:06 -34.82048 -58.54550 73 ft 98 kts 102°
2026-05-06 22:06 -34.82230 -58.53537 73 ft 144 kts 102°
2026-05-06 22:07 -34.82473 -58.52181 122 ft 181 kts 102°
2026-05-06 22:07 -34.82751 -58.50687 722 ft 181 kts 102°
2026-05-06 22:07 -34.83411 -58.49299 965 ft 208 kts 138°
2026-05-06 22:07 -34.84774 -58.48603 1258 ft 226 kts 177°
2026-05-06 22:08 -34.86330 -58.49007 1578 ft 234 kts 216°
2026-05-06 22:08 -34.87456 -58.50423 1894 ft 234 kts 253°
2026-05-06 22:08 -34.87746 -58.52335 2174 ft 236 kts 287°
2026-05-06 22:08 -34.87102 -58.54156 2530 ft 239 kts 317°
2026-05-06 22:09 -34.85725 -58.55232 3125 ft 239 kts 347°
2026-05-06 22:09 -34.84127 -58.55567 4060 ft 233 kts 347°
2026-05-06 22:09 -34.82548 -58.56047 4806 ft 236 kts 343°
2026-05-06 22:09 -34.80984 -58.56618 5575 ft 238 kts 341°
2026-05-06 22:10 -34.79421 -58.57247 6354 ft 239 kts 340°
2026-05-06 22:10 -34.77858 -58.57912 7091 ft 241 kts 339°
2026-05-06 22:10 -34.76275 -58.58606 7715 ft 247 kts 338°
2026-05-06 22:10 -34.74729 -58.59297 8358 ft 251 kts 338°
2026-05-06 22:11 -34.73113 -58.60027 9058 ft 253 kts 338°
2026-05-06 22:11 -34.71453 -58.60782 9677 ft 258 kts 337°
2026-05-06 22:11 -34.69745 -58.61561 10114 ft 271 kts 337°
2026-05-06 22:11 -34.67875 -58.62420 10140 ft 299 kts 337°
2026-05-06 22:12 -34.65851 -58.63347 10204 ft 326 kts 338°
2026-05-06 22:12 -34.63654 -58.64351 10404 ft 348 kts 338°
2026-05-06 22:12 -34.61387 -58.65384 11265 ft 349 kts 337°
2026-05-06 22:12 -34.59077 -58.66441 11844 ft 358 kts 337°
2026-05-06 22:13 -34.56735 -58.67509 12549 ft 363 kts 337°
2026-05-06 22:13 -34.54371 -58.68589 13224 ft 367 kts 337°
2026-05-06 22:13 -34.51967 -58.69687 13841 ft 373 kts 337°
2026-05-06 22:13 -34.49557 -58.70785 14688 ft 372 kts 337°
2026-05-06 22:14 -34.47122 -58.71896 15324 ft 377 kts 337°
2026-05-06 22:14 -34.44662 -58.73017 16037 ft 379 kts 337°
2026-05-06 22:14 -34.42212 -58.74133 16800 ft 380 kts 337°
2026-05-06 22:14 -34.39737 -58.75259 17486 ft 382 kts 337°
2026-05-06 22:15 -34.37210 -58.76408 18085 ft 387 kts 337°
2026-05-06 22:15 -34.34694 -58.77551 18845 ft 388 kts 336°
2026-05-06 22:15 -34.32161 -58.78701 19456 ft 392 kts 336°
2026-05-06 22:15 -34.29610 -58.79859 20054 ft 396 kts 336°
2026-05-06 22:16 -34.27037 -58.81027 20695 ft 398 kts 336°
2026-05-06 22:16 -34.24411 -58.82217 21284 ft 402 kts 336°
2026-05-06 22:16 -34.21800 -58.83400 21928 ft 403 kts 336°
2026-05-06 22:16 -34.19168 -58.84591 22520 ft 407 kts 336°
2026-05-06 22:17 -34.16510 -58.85794 23058 ft 411 kts 336°
2026-05-06 22:17 -34.13837 -58.87002 23731 ft 412 kts 336°
2026-05-06 22:17 -34.11145 -58.88218 24197 ft 417 kts 336°
2026-05-06 22:17 -34.08400 -58.89458 24831 ft 419 kts 336°
2026-05-06 22:18 -34.05669 -58.90690 25412 ft 421 kts 336°
2026-05-06 22:18 -34.02926 -58.91926 25936 ft 424 kts 336°
2026-05-06 22:18 -34.00158 -58.93172 26519 ft 426 kts 335°
2026-05-06 22:18 -33.97408 -58.94484 26992 ft 427 kts 331°
2026-05-06 22:19 -33.94803 -58.96266 27430 ft 427 kts 325°
2026-05-06 22:19 -33.92265 -58.98113 27723 ft 428 kts 326°
2026-05-06 22:19 -33.89709 -58.99972 27669 ft 429 kts 326°
2026-05-06 22:19 -33.87118 -59.01855 27686 ft 429 kts 326°
2026-05-06 22:20 -33.84564 -59.03715 27691 ft 430 kts 326°
2026-05-06 22:20 -33.82020 -59.05568 27681 ft 429 kts 326°
2026-05-06 22:20 -33.79473 -59.07423 27687 ft 429 kts 326°
2026-05-06 22:20 -33.76897 -59.09300 27684 ft 429 kts 326°
2026-05-06 22:21 -33.74357 -59.11147 27675 ft 429 kts 326°
2026-05-06 22:21 -33.71811 -59.12999 27687 ft 429 kts 326°
2026-05-06 22:21 -33.69233 -59.14873 27679 ft 430 kts 326°
2026-05-06 22:21 -33.66687 -59.16722 27685 ft 430 kts 325°
2026-05-06 22:22 -33.64137 -59.18573 27680 ft 430 kts 325°
2026-05-06 22:22 -33.61592 -59.20418 27672 ft 430 kts 326°
2026-05-06 22:22 -33.59002 -59.22296 27678 ft 430 kts 326°
2026-05-06 22:22 -33.56456 -59.24139 27681 ft 431 kts 325°
2026-05-06 22:23 -33.53902 -59.25988 27673 ft 431 kts 325°
2026-05-06 22:23 -33.51328 -59.27850 27676 ft 430 kts 325°
2026-05-06 22:23 -33.48778 -59.29694 27678 ft 430 kts 326°
2026-05-06 22:23 -33.46193 -59.31561 27676 ft 431 kts 325°
2026-05-06 22:24 -33.43635 -59.33406 27685 ft 431 kts 325°
2026-05-06 22:24 -33.41079 -59.35250 27669 ft 431 kts 325°
2026-05-06 22:24 -33.38520 -59.37094 27673 ft 430 kts 325°
2026-05-06 22:24 -33.35931 -59.38959 27674 ft 431 kts 325°
2026-05-06 22:25 -33.33371 -59.40802 27681 ft 431 kts 325°
2026-05-06 22:25 -33.30808 -59.42645 27675 ft 432 kts 325°
2026-05-06 22:25 -33.28238 -59.44492 27678 ft 431 kts 325°
2026-05-06 22:25 -33.25643 -59.46357 27673 ft 431 kts 325°
2026-05-06 22:26 -33.23084 -59.48192 27674 ft 431 kts 325°
2026-05-06 22:26 -33.20524 -59.50029 27676 ft 430 kts 325°
2026-05-06 22:26 -33.17970 -59.51860 27676 ft 430 kts 325°
2026-05-06 22:26 -33.15373 -59.53721 27675 ft 431 kts 325°
2026-05-06 22:27 -33.12810 -59.55554 27677 ft 431 kts 325°
2026-05-06 22:27 -33.10244 -59.57390 27678 ft 431 kts 325°
2026-05-06 22:27 -33.07678 -59.59224 27677 ft 431 kts 325°
2026-05-06 22:27 -33.05117 -59.61053 27684 ft 431 kts 325°
2026-05-06 22:28 -33.02552 -59.62884 27684 ft 430 kts 325°
2026-05-06 22:28 -32.99952 -59.64740 27690 ft 430 kts 325°
2026-05-06 22:28 -32.97413 -59.66548 27696 ft 430 kts 325°
2026-05-06 22:28 -32.94809 -59.68404 27704 ft 431 kts 325°
2026-05-06 22:29 -32.92253 -59.70224 27702 ft 431 kts 325°
2026-05-06 22:29 -32.89673 -59.72058 27703 ft 430 kts 325°
2026-05-06 22:29 -32.87081 -59.73902 27711 ft 431 kts 325°
2026-05-06 22:29 -32.84510 -59.75728 27706 ft 432 kts 325°
2026-05-06 22:30 -32.81945 -59.77549 27706 ft 432 kts 325°
2026-05-06 22:30 -32.79374 -59.79372 27701 ft 431 kts 325°
2026-05-06 22:30 -32.76771 -59.81218 27701 ft 431 kts 325°
2026-05-06 22:30 -32.74202 -59.83038 27693 ft 432 kts 325°
2026-05-06 22:31 -32.71626 -59.84862 27689 ft 431 kts 325°
2026-05-06 22:31 -32.69062 -59.86676 27694 ft 431 kts 325°
2026-05-06 22:31 -32.66460 -59.88515 27694 ft 432 kts 325°
2026-05-06 22:31 -32.63891 -59.90331 27690 ft 432 kts 325°
2026-05-06 22:32 -32.61319 -59.92147 27693 ft 431 kts 325°
2026-05-06 22:32 -32.58752 -59.93958 27690 ft 431 kts 325°
2026-05-06 22:32 -32.56437 -59.95593 27691 ft 430 kts 325°
2026-05-06 22:32 -32.53875 -59.97401 27692 ft 430 kts 325°
2026-05-06 22:33 -32.51310 -59.99210 27690 ft 430 kts 325°
2026-05-06 22:33 -32.48753 -60.01012 27692 ft 430 kts 325°
2026-05-06 22:33 -32.46192 -60.02816 27694 ft 429 kts 325°
2026-05-06 22:33 -32.43604 -60.04637 27687 ft 430 kts 325°
2026-05-06 22:34 -32.41050 -60.06434 27694 ft 429 kts 325°
2026-05-06 22:34 -32.38460 -60.08254 27691 ft 430 kts 324°
2026-05-06 22:34 -32.35905 -60.10049 27688 ft 430 kts 324°
2026-05-06 22:34 -32.33344 -60.11847 27695 ft 430 kts 325°
2026-05-06 22:35 -32.30738 -60.13675 27692 ft 431 kts 325°
2026-05-06 22:35 -32.28174 -60.15472 27688 ft 430 kts 325°
2026-05-06 22:35 -32.25621 -60.17260 27687 ft 429 kts 325°
2026-05-06 22:35 -32.23027 -60.19076 27679 ft 430 kts 325°
2026-05-06 22:36 -32.20455 -60.20876 27678 ft 431 kts 325°
2026-05-06 22:36 -32.17886 -60.22672 27674 ft 430 kts 325°
2026-05-06 22:36 -32.15331 -60.24456 27677 ft 430 kts 325°
2026-05-06 22:36 -32.12731 -60.26273 27675 ft 429 kts 324°
2026-05-06 22:37 -32.10177 -60.28054 27674 ft 430 kts 325°
2026-05-06 22:37 -32.07610 -60.29845 27676 ft 430 kts 325°
2026-05-06 22:37 -32.05040 -60.31636 27678 ft 429 kts 324°
2026-05-06 22:37 -32.02467 -60.33427 27672 ft 429 kts 324°
2026-05-06 22:38 -31.99873 -60.35232 27673 ft 430 kts 324°
2026-05-06 22:38 -31.97311 -60.37014 27680 ft 431 kts 324°
2026-05-06 22:38 -31.94734 -60.38805 27675 ft 431 kts 325°
2026-05-06 22:38 -31.92163 -60.40591 27676 ft 429 kts 325°
2026-05-06 22:39 -31.89600 -60.42370 27672 ft 429 kts 324°
2026-05-06 22:39 -31.87007 -60.44167 27689 ft 430 kts 324°
2026-05-06 22:39 -31.84436 -60.45951 27689 ft 431 kts 324°
2026-05-06 22:39 -31.81830 -60.47755 27688 ft 430 kts 324°
2026-05-06 22:40 -31.79295 -60.49598 27688 ft 428 kts 321°
2026-05-06 22:40 -31.76808 -60.51512 27689 ft 429 kts 322°
2026-05-06 22:40 -31.74317 -60.53415 27686 ft 429 kts 322°
2026-05-06 22:40 -31.71816 -60.55324 27688 ft 429 kts 322°
2026-05-06 22:41 -31.66795 -60.59151 27678 ft 428 kts 322°
2026-05-06 22:41 -31.64306 -60.61044 27680 ft 428 kts 322°
2026-05-06 22:41 -31.61811 -60.62942 27675 ft 428 kts 322°
2026-05-06 22:42 -31.59322 -60.64835 27678 ft 428 kts 322°
2026-05-06 22:42 -31.56807 -60.66745 27692 ft 430 kts 322°
2026-05-06 22:42 -31.54272 -60.68670 27686 ft 430 kts 323°
2026-05-06 22:42 -31.51775 -60.70564 27688 ft 430 kts 322°
2026-05-06 22:43 -31.49278 -60.72457 27684 ft 429 kts 322°
2026-05-06 22:43 -31.46746 -60.74376 27684 ft 430 kts 322°
2026-05-06 22:43 -31.44255 -60.76261 27679 ft 429 kts 322°
2026-05-06 22:43 -31.41730 -60.78171 27678 ft 429 kts 322°
2026-05-06 22:44 -31.39237 -60.80056 27675 ft 429 kts 322°
2026-05-06 22:44 -31.36741 -60.81942 27672 ft 430 kts 322°
2026-05-06 22:44 -31.34208 -60.83856 27668 ft 431 kts 322°
2026-05-06 22:44 -31.31701 -60.85748 27663 ft 431 kts 322°
2026-05-06 22:45 -31.29190 -60.87641 27662 ft 430 kts 322°
2026-05-06 22:45 -31.26655 -60.89552 27661 ft 430 kts 322°
2026-05-06 22:45 -31.24155 -60.91434 27662 ft 431 kts 322°
2026-05-06 22:45 -31.21654 -60.93317 27661 ft 431 kts 322°
2026-05-06 22:46 -31.19111 -60.95231 27662 ft 431 kts 322°
2026-05-06 22:46 -31.16604 -60.97115 27664 ft 431 kts 322°
2026-05-06 22:46 -31.14094 -60.99001 27661 ft 431 kts 322°
2026-05-06 22:46 -31.11550 -61.00910 27663 ft 431 kts 322°
2026-05-06 22:47 -31.09036 -61.02797 27663 ft 432 kts 322°
2026-05-06 22:47 -31.06521 -61.04682 27659 ft 432 kts 322°
2026-05-06 22:47 -31.03974 -61.06591 27660 ft 432 kts 322°
2026-05-06 22:47 -31.01465 -61.08466 27658 ft 430 kts 322°
2026-05-06 22:48 -30.98952 -61.10342 27657 ft 430 kts 322°
2026-05-06 22:48 -30.96408 -61.12240 27653 ft 431 kts 322°
2026-05-06 22:48 -30.93897 -61.14114 27661 ft 431 kts 322°
2026-05-06 22:48 -30.91383 -61.15987 27660 ft 431 kts 322°
2026-05-06 22:49 -30.88829 -61.17888 27668 ft 431 kts 322°
2026-05-06 22:49 -30.86293 -61.19776 27661 ft 431 kts 322°
2026-05-06 22:49 -30.83763 -61.21658 27944 ft 433 kts 322°
2026-05-06 22:49 -30.81252 -61.23522 28719 ft 428 kts 322°
2026-05-06 22:50 -30.78772 -61.25362 29455 ft 423 kts 321°
2026-05-06 22:50 -30.76281 -61.27212 29680 ft 420 kts 321°
2026-05-06 22:50 -30.73837 -61.29026 29676 ft 418 kts 321°
2026-05-06 22:51 -30.68954 -61.32646 29666 ft 414 kts 321°
2026-05-06 22:51 -30.64112 -61.36234 29661 ft 416 kts 321°
2026-05-06 22:52 -30.59223 -61.39848 29658 ft 416 kts 321°
2026-05-06 22:52 -30.54346 -61.43451 29662 ft 415 kts 322°
2026-05-06 22:53 -30.49444 -61.47067 29661 ft 417 kts 322°
2026-05-06 22:53 -30.44571 -61.50657 29656 ft 416 kts 322°
2026-05-06 22:54 -30.39675 -61.54261 29657 ft 417 kts 321°
2026-05-06 22:54 -30.34783 -61.57856 29652 ft 418 kts 321°
2026-05-06 22:55 -30.29881 -61.61454 29654 ft 417 kts 321°
2026-05-06 22:55 -30.24991 -61.65039 29655 ft 417 kts 322°
2026-05-06 22:56 -30.20050 -61.68657 29668 ft 417 kts 322°
2026-05-06 22:56 -30.15177 -61.72223 29672 ft 416 kts 322°
2026-05-06 22:57 -30.10269 -61.75809 29663 ft 418 kts 322°
2026-05-06 22:57 -30.05373 -61.79382 29678 ft 418 kts 322°
2026-05-06 22:58 -30.00453 -61.82967 29664 ft 416 kts 322°
2026-05-06 22:58 -29.95582 -61.86513 29667 ft 416 kts 322°
2026-05-06 22:59 -29.90690 -61.90070 29654 ft 414 kts 322°
2026-05-06 22:59 -29.86055 -61.93945 29691 ft 408 kts 311°
2026-05-06 23:00 -29.81901 -61.98477 29661 ft 410 kts 312°
2026-05-06 23:00 -29.77776 -62.02974 29669 ft 409 kts 312°
2026-05-06 23:01 -29.73642 -62.07486 29660 ft 409 kts 312°
2026-05-06 23:01 -29.69535 -62.11964 29654 ft 408 kts 311°
2026-05-06 23:02 -29.65403 -62.16469 29664 ft 409 kts 312°
2026-05-06 23:02 -29.61288 -62.20948 29657 ft 410 kts 312°
2026-05-06 23:03 -29.57163 -62.25433 29680 ft 408 kts 312°
2026-05-06 23:03 -29.53033 -62.29919 29669 ft 408 kts 312°
2026-05-06 23:04 -29.48890 -62.34413 29664 ft 409 kts 312°
2026-05-06 23:04 -29.44777 -62.38870 29667 ft 408 kts 312°
2026-05-06 23:05 -29.40633 -62.43354 29660 ft 409 kts 312°
2026-05-06 23:05 -29.36508 -62.47812 29656 ft 410 kts 312°
2026-05-06 23:06 -29.32362 -62.52290 29651 ft 407 kts 312°
2026-05-06 23:06 -29.28250 -62.56723 29668 ft 407 kts 312°
2026-05-06 23:07 -29.24132 -62.61159 29654 ft 409 kts 312°
2026-05-06 23:07 -29.19981 -62.65626 29640 ft 407 kts 313°
2026-05-06 23:08 -29.15837 -62.70080 29661 ft 410 kts 312°
2026-05-06 23:08 -29.11686 -62.74535 29661 ft 408 kts 313°
2026-05-06 23:09 -29.07542 -62.78977 29653 ft 409 kts 313°
2026-05-06 23:09 -29.03395 -62.83421 29652 ft 410 kts 313°
2026-05-06 23:10 -28.99246 -62.87856 29641 ft 408 kts 313°
2026-05-06 23:10 -28.95084 -62.92302 29650 ft 409 kts 313°
2026-05-06 23:11 -28.90932 -62.96730 29648 ft 408 kts 312°
2026-05-06 23:11 -28.86783 -63.01155 29653 ft 409 kts 313°
2026-05-06 23:12 -28.82610 -63.05597 29650 ft 409 kts 312°
2026-05-06 23:12 -28.78480 -63.09987 29654 ft 407 kts 313°
2026-05-06 23:13 -28.74338 -63.14386 29646 ft 406 kts 313°
2026-05-06 23:13 -28.70181 -63.18800 29651 ft 408 kts 313°
2026-05-06 23:14 -28.66038 -63.23187 29658 ft 408 kts 313°
2026-05-06 23:14 -28.61895 -63.27571 29650 ft 407 kts 313°
2026-05-06 23:15 -28.57743 -63.31961 29658 ft 407 kts 312°
2026-05-06 23:15 -28.53569 -63.36369 29649 ft 409 kts 312°
2026-05-06 23:16 -28.49421 -63.40745 29642 ft 408 kts 313°
2026-05-06 23:16 -28.45280 -63.45108 29652 ft 407 kts 312°
2026-05-06 23:17 -28.41111 -63.49497 29642 ft 406 kts 312°
2026-05-06 23:17 -28.36979 -63.53840 29636 ft 408 kts 312°
2026-05-06 23:18 -28.32807 -63.58221 29636 ft 406 kts 312°
2026-05-06 23:18 -28.28689 -63.62540 29649 ft 405 kts 312°
2026-05-06 23:19 -28.24519 -63.66909 29668 ft 407 kts 313°
2026-05-06 23:19 -28.20350 -63.71272 29649 ft 408 kts 313°
2026-05-06 23:20 -28.16212 -63.75599 29649 ft 406 kts 312°
2026-05-06 23:20 -28.12057 -63.79939 29657 ft 405 kts 312°
2026-05-06 23:21 -28.07896 -63.84278 29642 ft 406 kts 312°
2026-05-06 23:21 -28.03776 -63.88590 29650 ft 406 kts 313°
2026-05-06 23:22 -27.99613 -63.92947 29653 ft 407 kts 313°
2026-05-06 23:22 -27.95485 -63.97260 29635 ft 405 kts 313°
2026-05-06 23:23 -27.91336 -64.01596 29625 ft 406 kts 313°
2026-05-06 23:23 -27.87183 -64.05926 29636 ft 407 kts 313°
2026-05-06 23:24 -27.83001 -64.10286 29646 ft 409 kts 313°
2026-05-06 23:24 -27.78840 -64.14616 29663 ft 406 kts 313°
2026-05-06 23:25 -27.74692 -64.18927 29661 ft 404 kts 312°
2026-05-06 23:25 -27.70559 -64.23222 29670 ft 407 kts 313°
2026-05-06 23:26 -27.66378 -64.27558 29660 ft 406 kts 313°
2026-05-06 23:26 -27.62215 -64.31873 29661 ft 405 kts 312°
2026-05-06 23:27 -27.58066 -64.36168 29660 ft 406 kts 313°
2026-05-06 23:27 -27.53928 -64.40447 29663 ft 406 kts 313°
2026-05-06 23:28 -27.49760 -64.44754 29662 ft 406 kts 313°
2026-05-06 23:28 -27.45613 -64.49031 29659 ft 406 kts 313°
2026-05-06 23:29 -27.41448 -64.53325 29657 ft 406 kts 312°
2026-05-06 23:29 -27.37266 -64.57632 29653 ft 407 kts 312°
2026-05-06 23:30 -27.33107 -64.61891 29651 ft 405 kts 313°
2026-05-06 23:30 -27.28895 -64.66161 29671 ft 405 kts 313°
2026-05-06 23:31 -27.24712 -64.70396 29682 ft 406 kts 313°
2026-05-06 23:31 -27.20526 -64.74630 29678 ft 405 kts 313°
2026-05-06 23:32 -27.16333 -64.78868 29688 ft 406 kts 313°
2026-05-06 23:32 -27.12124 -64.83115 29682 ft 406 kts 313°
2026-05-06 23:33 -27.07922 -64.87354 29674 ft 404 kts 313°
2026-05-06 23:33 -27.03741 -64.91567 29688 ft 406 kts 313°
2026-05-06 23:34 -26.99552 -64.95785 29691 ft 406 kts 313°
2026-05-06 23:34 -26.95353 -65.00002 29695 ft 404 kts 313°
2026-05-06 23:35 -26.91157 -65.04218 29687 ft 408 kts 313°
2026-05-06 23:35 -26.86916 -65.08472 29703 ft 405 kts 313°
2026-05-06 23:36 -26.82647 -65.12597 29715 ft 408 kts 315°
2026-05-06 23:36 -26.78266 -65.16599 29748 ft 407 kts 315°
2026-05-06 23:37 -26.73850 -65.20636 29757 ft 408 kts 315°
2026-05-06 23:37 -26.69468 -65.24638 29813 ft 409 kts 316°
2026-05-06 23:38 -26.65035 -65.28681 29831 ft 412 kts 315°
2026-05-06 23:38 -26.60631 -65.32695 29907 ft 408 kts 315°
2026-05-06 23:39 -26.56221 -65.36712 29990 ft 408 kts 316°
2026-05-06 23:39 -26.51804 -65.40727 30013 ft 409 kts 316°
2026-05-06 23:40 -26.47417 -65.44715 30070 ft 408 kts 315°
2026-05-06 23:40 -26.42989 -65.48736 30078 ft 409 kts 315°
2026-05-06 23:41 -26.38570 -65.52744 30126 ft 414 kts 315°
2026-05-06 23:41 -26.34103 -65.56789 30170 ft 410 kts 316°
2026-05-06 23:42 -26.29679 -65.60792 30220 ft 409 kts 316°
2026-05-06 23:42 -26.25258 -65.64790 30268 ft 411 kts 315°
2026-05-06 23:43 -26.20792 -65.68825 30335 ft 416 kts 315°
2026-05-06 23:43 -26.16300 -65.72876 30329 ft 412 kts 315°
2026-05-06 23:44 -26.11856 -65.76884 30323 ft 413 kts 316°
2026-05-06 23:44 -26.07403 -65.80889 30282 ft 413 kts 316°
2026-05-06 23:45 -26.02931 -65.84911 30245 ft 414 kts 316°
2026-05-06 23:45 -25.98422 -65.88960 30235 ft 416 kts 316°
2026-05-06 23:46 -25.93930 -65.92996 30257 ft 416 kts 316°
2026-05-06 23:46 -25.89418 -65.97037 30243 ft 418 kts 316°
2026-05-06 23:47 -25.84870 -66.01109 30289 ft 417 kts 316°
2026-05-06 23:47 -25.80382 -66.05123 30370 ft 415 kts 316°
2026-05-06 23:48 -25.75886 -66.09141 30396 ft 417 kts 316°
2026-05-06 23:48 -25.71348 -66.13193 30454 ft 415 kts 316°
2026-05-06 23:49 -25.66863 -66.17199 30478 ft 415 kts 316°
2026-05-06 23:49 -25.62351 -66.21221 30548 ft 416 kts 316°
2026-05-06 23:50 -25.57854 -66.25223 30532 ft 415 kts 315°
2026-05-06 23:50 -25.51090 -66.31241 30605 ft 414 kts 315°
2026-05-06 23:51 -25.46589 -66.35239 30612 ft 419 kts 316°
2026-05-06 23:51 -25.42077 -66.39242 30731 ft 411 kts 316°
2026-05-06 23:52 -25.37618 -66.43195 30765 ft 413 kts 316°
2026-05-06 23:52 -25.33105 -66.47193 30756 ft 415 kts 316°
2026-05-06 23:53 -25.28625 -66.51157 30769 ft 413 kts 316°
2026-05-06 23:53 -25.24134 -66.55127 30785 ft 413 kts 316°
2026-05-06 23:54 -25.19640 -66.59096 30787 ft 416 kts 316°
2026-05-06 23:54 -25.15138 -66.63066 30808 ft 413 kts 316°
2026-05-06 23:55 -25.10634 -66.67035 30842 ft 413 kts 316°
2026-05-06 23:55 -25.06148 -66.70986 30820 ft 415 kts 316°
2026-05-06 23:56 -25.01613 -66.74976 30823 ft 416 kts 316°
2026-05-06 23:56 -24.97108 -66.78934 30821 ft 416 kts 316°
2026-05-06 23:57 -24.92576 -66.82913 30827 ft 415 kts 316°
2026-05-06 23:57 -24.88047 -66.86884 30839 ft 415 kts 316°
2026-05-06 23:58 -24.83518 -66.90855 30858 ft 414 kts 316°
2026-05-06 23:58 -24.79010 -66.94800 30858 ft 418 kts 316°
2026-05-06 23:59 -24.74460 -66.98779 30873 ft 418 kts 316°
2026-05-06 23:59 -24.69920 -67.02745 30871 ft 414 kts 316°
2026-05-07 00:00 -24.65394 -67.06696 30858 ft 414 kts 315°
2026-05-07 00:00 -24.60883 -67.10631 30853 ft 416 kts 316°
2026-05-07 00:01 -24.56327 -67.14600 30838 ft 416 kts 315°
2026-05-07 00:01 -24.51798 -67.18542 30825 ft 414 kts 316°
2026-05-07 00:02 -24.47293 -67.22459 30836 ft 418 kts 316°
2026-05-07 00:02 -24.42732 -67.26420 30840 ft 416 kts 316°
2026-05-07 00:03 -24.38203 -67.30351 30853 ft 415 kts 316°
2026-05-07 00:03 -24.33677 -67.34277 30857 ft 416 kts 315°
2026-05-07 00:04 -24.29123 -67.38223 30866 ft 415 kts 316°
2026-05-07 00:04 -24.24597 -67.42139 30871 ft 414 kts 316°
2026-05-07 00:05 -24.20094 -67.46032 30873 ft 415 kts 315°
2026-05-07 00:05 -24.15540 -67.49967 30873 ft 417 kts 315°
2026-05-07 00:06 -24.10994 -67.53883 30853 ft 414 kts 316°
2026-05-07 00:06 -24.06453 -67.57711 30839 ft 413 kts 315°
2026-05-07 00:07 -24.01857 -67.61589 30837 ft 420 kts 316°
2026-05-07 00:07 -23.97243 -67.65474 30844 ft 415 kts 316°
2026-05-07 00:08 -23.92676 -67.69318 30851 ft 413 kts 315°
2026-05-07 00:08 -23.88090 -67.73177 30855 ft 415 kts 316°
2026-05-07 00:09 -23.83534 -67.77003 30858 ft 415 kts 316°
2026-05-07 00:09 -23.78936 -67.80862 30872 ft 416 kts 316°
2026-05-07 00:10 -23.74375 -67.84689 30865 ft 413 kts 316°
2026-05-07 00:10 -23.69788 -67.88534 30860 ft 415 kts 316°
2026-05-07 00:11 -23.65221 -67.92354 30833 ft 416 kts 316°
2026-05-07 00:11 -23.60595 -67.96224 30813 ft 419 kts 316°
2026-05-07 00:12 -23.55999 -68.00064 30779 ft 417 kts 316°
2026-05-07 00:12 -23.51378 -68.03921 30743 ft 418 kts 316°
2026-05-07 00:13 -23.46755 -68.07780 30735 ft 421 kts 316°
2026-05-07 00:13 -23.42102 -68.11656 30706 ft 420 kts 316°
2026-05-07 00:14 -23.37469 -68.15514 30699 ft 421 kts 317°
2026-05-07 00:14 -23.32807 -68.19392 30695 ft 422 kts 317°
2026-05-07 00:15 -23.28122 -68.23286 30671 ft 425 kts 316°
2026-05-07 00:15 -23.23407 -68.27201 30655 ft 425 kts 317°
2026-05-07 00:16 -23.18745 -68.31067 30641 ft 424 kts 317°
2026-05-07 00:16 -23.14050 -68.34958 30640 ft 424 kts 317°
2026-05-07 00:17 -23.09342 -68.38856 30624 ft 425 kts 317°
2026-05-07 00:17 -23.04619 -68.42767 30645 ft 428 kts 317°
2026-05-07 00:18 -22.99892 -68.46670 30639 ft 427 kts 317°
2026-05-07 00:18 -22.95175 -68.50568 30649 ft 426 kts 317°
2026-05-07 00:19 -22.90440 -68.54471 30667 ft 425 kts 317°
2026-05-07 00:19 -22.85725 -68.58361 30690 ft 428 kts 317°
2026-05-07 00:20 -22.80967 -68.62277 30675 ft 428 kts 317°
2026-05-07 00:20 -22.76219 -68.66184 30686 ft 429 kts 317°
2026-05-07 00:21 -22.71443 -68.70110 30680 ft 430 kts 318°
2026-05-07 00:21 -22.66692 -68.74011 30616 ft 430 kts 318°
2026-05-07 00:22 -22.61912 -68.77934 30624 ft 429 kts 318°
2026-05-07 00:22 -22.57166 -68.81825 30554 ft 431 kts 318°
2026-05-07 00:23 -22.52362 -68.85760 30503 ft 430 kts 318°
2026-05-07 00:23 -22.47696 -68.89773 30458 ft 430 kts 315°
2026-05-07 00:24 -22.43090 -68.93912 30457 ft 429 kts 315°
2026-05-07 00:24 -22.38508 -68.98027 30530 ft 430 kts 315°
2026-05-07 00:25 -22.33878 -69.02178 30551 ft 431 kts 315°
2026-05-07 00:25 -22.29280 -69.06297 30598 ft 429 kts 315°
2026-05-07 00:26 -22.24679 -69.10416 30579 ft 431 kts 315°
2026-05-07 00:26 -22.20063 -69.14543 30583 ft 431 kts 315°
2026-05-07 00:27 -22.15427 -69.18685 30561 ft 432 kts 315°
2026-05-07 00:27 -22.10817 -69.22800 30534 ft 431 kts 315°
2026-05-07 00:28 -22.06183 -69.26934 30494 ft 431 kts 315°
2026-05-07 00:28 -22.01571 -69.31043 30444 ft 431 kts 315°
2026-05-07 00:29 -21.96923 -69.35181 30411 ft 433 kts 315°
2026-05-07 00:30 -21.87648 -69.43428 30332 ft 434 kts 315°
2026-05-07 00:30 -21.83007 -69.47549 30329 ft 432 kts 316°
2026-05-07 00:31 -21.78335 -69.51695 30273 ft 434 kts 316°
2026-05-07 00:31 -21.73681 -69.55820 30280 ft 435 kts 316°
2026-05-07 00:32 -21.69005 -69.59961 30298 ft 434 kts 316°
2026-05-07 00:32 -21.64358 -69.64074 30284 ft 435 kts 316°
2026-05-07 00:33 -21.59677 -69.68212 30289 ft 435 kts 316°
2026-05-07 00:33 -21.54987 -69.72355 30276 ft 434 kts 316°
2026-05-07 00:34 -21.50334 -69.76461 30249 ft 434 kts 316°
2026-05-07 00:34 -21.45669 -69.80576 30221 ft 436 kts 316°
2026-05-07 00:35 -21.40987 -69.84701 30176 ft 436 kts 316°
2026-05-07 00:35 -21.36307 -69.88821 30166 ft 436 kts 316°
2026-05-07 00:36 -21.31593 -69.92967 30149 ft 435 kts 317°
2026-05-07 00:36 -21.26929 -69.97066 30132 ft 436 kts 317°
2026-05-07 00:37 -21.22215 -70.01206 30138 ft 436 kts 317°
2026-05-07 00:37 -21.17537 -70.05311 30082 ft 437 kts 317°
2026-05-07 00:38 -21.12832 -70.09435 30055 ft 437 kts 317°
2026-05-07 00:38 -21.08106 -70.13574 30036 ft 438 kts 317°
2026-05-07 00:39 -21.03360 -70.17728 30020 ft 439 kts 317°
2026-05-07 00:39 -20.98628 -70.21864 30012 ft 439 kts 317°
2026-05-07 00:40 -20.93907 -70.25987 30006 ft 440 kts 317°
2026-05-07 00:40 -20.89172 -70.30119 30004 ft 437 kts 317°
2026-05-07 00:41 -20.84430 -70.34254 30007 ft 439 kts 317°
2026-05-07 00:41 -20.79699 -70.38376 30007 ft 439 kts 317°
2026-05-07 00:42 -20.74979 -70.42484 30006 ft 439 kts 317°
2026-05-07 00:42 -20.70240 -70.46606 30007 ft 441 kts 317°
2026-05-07 00:43 -20.65482 -70.50742 30009 ft 441 kts 317°
2026-05-07 00:43 -20.60715 -70.54881 30006 ft 441 kts 317°
2026-05-07 00:44 -20.55952 -70.59019 30006 ft 441 kts 317°
2026-05-07 00:44 -20.51223 -70.63123 30005 ft 441 kts 317°
2026-05-07 00:45 -20.46454 -70.67259 30020 ft 442 kts 318°
2026-05-07 00:45 -20.41686 -70.71391 30013 ft 442 kts 318°
2026-05-07 00:46 -20.36899 -70.75536 30014 ft 443 kts 318°
2026-05-07 00:46 -20.32098 -70.79684 30014 ft 442 kts 318°
2026-05-07 00:47 -20.27352 -70.83782 30010 ft 441 kts 318°
2026-05-07 00:47 -20.22559 -70.87917 30011 ft 442 kts 318°
2026-05-07 00:48 -20.17787 -70.92031 30009 ft 444 kts 318°
2026-05-07 00:48 -20.12984 -70.96169 30010 ft 443 kts 319°
2026-05-07 00:49 -20.08188 -71.00297 30008 ft 443 kts 319°
2026-05-07 00:49 -20.03412 -71.04403 30009 ft 443 kts 319°
2026-05-07 00:50 -19.98597 -71.08541 30006 ft 444 kts 319°
2026-05-07 00:50 -19.93785 -71.12671 30007 ft 443 kts 319°
2026-05-07 00:51 -19.88997 -71.16779 30009 ft 444 kts 318°
2026-05-07 00:51 -19.84172 -71.20915 30011 ft 444 kts 318°
2026-05-07 00:52 -19.79382 -71.25017 30011 ft 444 kts 319°
2026-05-07 00:52 -19.74565 -71.29140 30011 ft 443 kts 319°
2026-05-07 00:53 -19.69760 -71.33248 30011 ft 444 kts 319°
2026-05-07 00:53 -19.64965 -71.37346 30010 ft 444 kts 318°
2026-05-07 00:54 -19.60136 -71.41468 30009 ft 445 kts 319°
2026-05-07 00:54 -19.55308 -71.45588 30009 ft 446 kts 319°
2026-05-07 00:55 -19.50485 -71.49699 30008 ft 445 kts 319°
2026-05-07 00:55 -19.45640 -71.53825 30005 ft 445 kts 319°
2026-05-07 00:56 -19.40810 -71.57935 30006 ft 446 kts 319°
2026-05-07 00:56 -19.35958 -71.62062 30006 ft 447 kts 319°
2026-05-07 00:57 -19.31130 -71.66164 30013 ft 445 kts 319°
2026-05-07 00:57 -19.26300 -71.70265 30013 ft 446 kts 319°
2026-05-07 00:58 -19.21430 -71.74397 30016 ft 447 kts 319°
2026-05-07 00:58 -19.16575 -71.78514 30021 ft 446 kts 319°
2026-05-07 00:59 -19.09299 -71.84676 30028 ft 448 kts 319°
2026-05-07 01:00 -19.04456 -71.88773 30023 ft 447 kts 319°
2026-05-07 01:00 -18.99582 -71.92893 30024 ft 447 kts 319°
2026-05-07 01:01 -18.94737 -71.96986 30025 ft 447 kts 319°
2026-05-07 01:01 -18.89867 -72.01097 30023 ft 447 kts 319°
2026-05-07 01:02 -18.84997 -72.05206 30029 ft 447 kts 319°
2026-05-07 01:02 -18.80141 -72.09299 30027 ft 447 kts 319°
2026-05-07 01:03 -18.75281 -72.13393 30027 ft 448 kts 319°
2026-05-07 01:03 -18.70418 -72.17484 30028 ft 446 kts 319°
2026-05-07 01:04 -18.65587 -72.21547 30029 ft 445 kts 319°
2026-05-07 01:04 -18.60729 -72.25630 30024 ft 447 kts 320°
2026-05-07 01:05 -18.55843 -72.29733 30027 ft 448 kts 319°
2026-05-07 01:05 -18.50999 -72.33796 30019 ft 447 kts 319°
2026-05-07 01:06 -18.46120 -72.37887 30017 ft 448 kts 320°
2026-05-07 01:06 -18.41221 -72.41991 30017 ft 447 kts 320°
2026-05-07 01:07 -18.36355 -72.46065 30012 ft 447 kts 320°
2026-05-07 01:07 -18.31505 -72.50124 30015 ft 446 kts 319°
2026-05-07 01:08 -18.26644 -72.54193 30016 ft 448 kts 319°
2026-05-07 01:08 -18.21748 -72.58285 30015 ft 447 kts 320°
2026-05-07 01:09 -18.16875 -72.62357 30015 ft 448 kts 320°
2026-05-07 01:09 -18.11971 -72.66451 30016 ft 448 kts 320°
2026-05-07 01:10 -18.07094 -72.70520 30009 ft 448 kts 320°
2026-05-07 01:10 -18.02224 -72.74580 30009 ft 448 kts 320°
2026-05-07 01:11 -17.97328 -72.78659 30005 ft 448 kts 320°
2026-05-07 01:11 -17.92425 -72.82740 30007 ft 449 kts 320°
2026-05-07 01:12 -17.87543 -72.86801 30014 ft 449 kts 320°